Total_Precipitation_Accumulation
0.00 0.02 0.05 0.05 0.04 0.00 0.00 0.00 0.00 0.00 0.00 0.00 0.00 0.02 0.03 0.03 0.03 0.04 0.07 0.08 0.05 0.03 0.04 0.04 0.08 0.10 0.16 0.34 0.45 0.55 0.44 0.40 0.10 0.03 0.01 0.01 0.00 0.00 0.01 0.00 0.00 0.00 0.00
0.00 0.01 0.02 0.02 0.04 0.02 0.00 0.00 0.00 0.00 0.00 0.00 0.00 0.00 0.00 0.01 0.01 0.00 0.00 0.01 0.01 0.01 0.01 0.03 0.05 0.08 0.15 0.31 0.50 0.51 0.41 0.42 0.21 0.08 0.02 0.02 0.01 0.01 0.00 0.00 0.00 0.00 0.00
0.01 0.01 0.00 0.00 0.01 0.01 0.00 0.00 0.00 0.00 0.00 0.00 0.00 0.00 0.00 0.00 0.00 0.00 0.00 0.00 0.00 0.01 0.01 0.01 0.02 0.03 0.05 0.15 0.36 0.47 0.43 0.30 0.19 0.07 0.03 0.02 0.01 0.01 0.00 0.00 0.00 0.00 0.00
0.00 0.00 0.00 0.00 0.00 0.00 0.00 0.00 0.00 0.00 0.00 0.00 0.00 0.01 0.01 0.01 0.00 0.00 0.00 0.00 0.00 0.00 0.00 0.01 0.01 0.01 0.02 0.03 0.09 0.19 0.21 0.12 0.10 0.05 0.02 0.02 0.01 0.01 0.01 0.00 0.00 0.00 0.00
0.00 0.00 0.00 0.00 0.00 0.00 0.00 0.00 0.00 0.00 0.00 0.01 0.00 0.01 0.01 0.02 0.01 0.02 0.00 0.00 0.00 0.01 0.02 0.01 0.00 0.00 0.00 0.00 0.02 0.10 0.04 0.00 0.00 0.01 0.01 0.01 0.01 0.00 0.01 0.01 0.01 0.00 0.00
0.00 0.00 0.00 0.00 0.00 0.00 0.00 0.00 0.00 0.02 0.02 0.02 0.01 0.03 0.09 0.14 0.01 0.01 0.00 0.00 0.02 0.02 0.03 0.02 0.00 0.00 0.00 0.00 0.00 0.01 0.03 0.00 0.00 0.01 0.00 0.00 0.00 0.00 0.00 0.01 0.01 0.00 0.00
0.00 0.00 0.00 0.00 0.00 0.00 0.00 0.01 0.02 0.03 0.02 0.02 0.03 0.05 0.08 0.14 0.00 0.00 0.00 0.00 0.00 0.00 0.01 0.02 0.01 0.00 0.00 0.00 0.00 0.00 0.00 0.00 0.00 0.00 0.00 0.00 0.00 0.00 0.00 0.00 0.00 0.00 0.01
0.02 0.00 0.00 0.00 0.00 0.00 0.01 0.02 0.03 0.02 0.02 0.03 0.07 0.08 0.07 0.05 0.04 0.00 0.00 0.00 0.00 0.01 0.00 0.00 0.03 0.03 0.00 0.00 0.00 0.00 0.00 0.00 0.00 0.00 0.01 0.01 0.00 0.00 0.00 0.01 0.02 0.02 0.02
0.06 0.04 0.00 0.00 0.00 0.02 0.03 0.04 0.04 0.04 0.02 0.02 0.07 0.18 0.20 0.22 0.13 0.02 0.00 0.00 0.01 0.01 0.02 0.01 0.00 0.01 0.00 0.00 0.00 0.02 0.00 0.00 0.00 0.00 0.01 0.01 0.00 0.00 0.00 0.00 0.01 0.03 0.05
0.14 0.12 0.07 0.01 0.00 0.01 0.02 0.03 0.05 0.03 0.01 0.02 0.02 0.06 0.15 0.31 0.29 0.12 0.02 0.01 0.04 0.05 0.05 0.03 0.00 0.00 0.00 0.00 0.00 0.02 0.01 0.01 0.00 0.00 0.00 0.00 0.00 0.00 0.00 0.01 0.03 0.02 0.05
0.28 0.23 0.20 0.10 0.02 0.01 0.04 0.06 0.04 0.01 0.01 0.01 0.01 0.02 0.07 0.11 0.15 0.16 0.06 0.00 0.03 0.05 0.04 0.04 0.03 0.00 0.00 0.00 0.00 0.00 0.01 0.03 0.02 0.00 0.00 0.00 0.00 0.01 0.00 0.01 0.06 0.07 0.07
0.35 0.34 0.25 0.11 0.02 0.03 0.08 0.06 0.02 0.01 0.00 0.01 0.01 0.01 0.02 0.05 0.09 0.14 0.12 0.07 0.04 0.02 0.05 0.03 0.02 0.00 0.00 0.00 0.00 0.00 0.00 0.00 0.01 0.01 0.00 0.00 0.00 0.00 0.00 0.00 0.00 0.01 0.05
1.42 1.29 0.86 0.24 0.10 0.08 0.09 0.07 0.02 0.01 0.00 0.01 0.01 0.01 0.02 0.02 0.05 0.10 0.10 0.08 0.05 0.02 0.00 0.01 0.01 0.00 0.00 0.00 0.00 0.00 0.00 0.00 0.00 0.00 0.00 0.00 0.00 0.00 0.00 0.00 0.00 0.00 0.00
1.92 1.89 1.28 0.31 0.07 0.07 0.06 0.07 0.02 0.01 0.01 0.02 0.03 0.03 0.05 0.06 0.08 0.09 0.07 0.05 0.04 0.02 0.02 0.01 0.00 0.00 0.00 0.00 0.00 0.00 0.00 0.00 0.00 0.00 0.00 0.00 0.00 0.00 0.00 0.00 0.00 0.00 0.00
0.73 0.81 0.26 0.08 0.05 0.03 0.06 0.05 0.02 0.06 0.08 0.03 0.03 0.02 0.03 0.05 0.11 0.15 0.10 0.06 0.08 0.13 0.12 0.06 0.03 0.02 0.01 0.01 0.00 0.00 0.00 0.00 0.00 0.00 0.00 0.00 0.00 0.00 0.00 0.00 0.00 0.00 0.00
0.05 0.05 0.04 0.02 0.03 0.04 0.05 0.08 0.12 0.10 0.07 0.02 0.02 0.00 0.01 0.02 0.04 0.07 0.07 0.11 0.16 0.29 0.26 0.16 0.17 0.16 0.12 0.12 0.10 0.05 0.02 0.02 0.02 0.03 0.02 0.05 0.08 0.10 0.07 0.03 0.00 0.00 0.00
0.17 0.17 0.13 0.11 0.11 0.12 0.11 0.04 0.00 0.00 0.01 0.01 0.00 0.00 0.00 0.00 0.01 0.01 0.02 0.07 0.11 0.18 0.13 0.08 0.12 0.17 0.23 0.25 0.24 0.22 0.16 0.14 0.12 0.12 0.18 0.21 0.23 0.19 0.16 0.08 0.04 0.03 0.02
0.31 0.26 0.18 0.11 0.11 0.12 0.04 0.00 0.00 0.00 0.00 0.00 0.00 0.01 0.00 0.00 0.00 0.00 0.01 0.02 0.02 0.04 0.03 0.04 0.07 0.13 0.15 0.14 0.16 0.21 0.23 0.28 0.26 0.21 0.19 0.18 0.15 0.13 0.11 0.11 0.13 0.17 0.18
0.29 0.17 0.10 0.05 0.02 0.02 0.00 0.00 0.00 0.00 0.00 0.00 0.00 0.00 0.00 0.01 0.00 0.01 0.01 0.00 0.01 0.02 0.05 0.07 0.08 0.09 0.11 0.14 0.17 0.21 0.27 0.34 0.37 0.35 0.32 0.31 0.28 0.27 0.22 0.18 0.14 0.11 0.08
0.87 0.70 0.47 0.31 0.14 0.05 0.03 0.02 0.01 0.01 0.02 0.04 0.03 0.02 0.00 0.00 0.00 0.00 0.00 0.00 0.00 0.00 0.01 0.11 0.16 0.15 0.19 0.36 0.47 0.53 0.51 0.44 0.38 0.35 0.30 0.25 0.18 0.12 0.07 0.03 0.01 0.01 0.01
0.19 0.29 0.20 0.14 0.13 0.28 0.32 0.21 0.16 0.13 0.05 0.07 0.21 0.22 0.07 0.01 0.00 0.00 0.00 0.00 0.00 0.00 0.01 0.08 0.08 0.17 0.16 0.15 0.16 0.21 0.24 0.19 0.17 0.15 0.12 0.10 0.09 0.06 0.04 0.05 0.04 0.04 0.04
0.01 0.03 0.06 0.02 0.02 0.06 0.06 0.04 0.04 0.06 0.08 0.12 0.22 0.14 0.01 0.00 0.00 0.00 0.00 0.00 0.00 0.00 0.00 0.00 0.03 0.04 0.01 0.01 0.04 0.04 0.05 0.06 0.07 0.08 0.10 0.10 0.09 0.10 0.09 0.08 0.06 0.06 0.06
0.00 0.00 0.00 0.00 0.00 0.01 0.00 0.00 0.02 0.05 0.09 0.08 0.04 0.02 0.00 0.00 0.00 0.00 0.00 0.00 0.00 0.00 0.00 0.00 0.00 0.00 0.00 0.00 0.00 0.00 0.00 0.01 0.04 0.06 0.07 0.11 0.14 0.15 0.15 0.17 0.18 0.16 0.14
0.00 0.00 0.00 0.00 0.00 0.00 0.00 0.02 0.03 0.01 0.01 0.00 0.00 0.00 0.00 0.00 0.00 0.00 0.00 0.00 0.00 0.00 0.00 0.00 0.00 0.00 0.00 0.00 0.00 0.00 0.00 0.00 0.00 0.02 0.05 0.10 0.15 0.19 0.23 0.28 0.31 0.33 0.34
0.01 0.02 0.01 0.01 0.02 0.01 0.01 0.01 0.00 0.00 0.00 0.00 0.00 0.00 0.00 0.00 0.00 0.00 0.00 0.00 0.00 0.01 0.01 0.02 0.02 0.02 0.01 0.01 0.01 0.01 0.02 0.04 0.03 0.02 0.02 0.04 0.06 0.11 0.18 0.25 0.28 0.32 0.36
0.00 0.01 0.01 0.01 0.00 0.00 0.00 0.00 0.00 0.00 0.00 0.00 0.00 0.00 0.01 0.01 0.01 0.01 0.02 0.02 0.01 0.01 0.01 0.01 0.02 0.05 0.07 0.05 0.04 0.05 0.05 0.06 0.05 0.05 0.04 0.04 0.06 0.09 0.14 0.19 0.24 0.29 0.33